W4JTD-13 Weather Reports


Display with metric or nautical units.
time (UTC)temp
F
wind
direction
speed
MPH
gust
MPH
rain 1hr
in
rain 24hr
in
rain mn
in
humidity
%
barometer
mb
20260510081547 48 345 1.0 3.0 0.00 0.00 0.00 91 1013.6
20260510081035 48 345 2.0 3.0 0.00 0.00 0.00 92 1013.7
20260510080535 49 345 0.0 2.0 0.00 0.00 0.00 91 1013.7
20260510080045 49 0 0.0 3.0 0.00 0.00 0.00 90 1013.7
20260510075534 49 348 1.0 3.0 0.00 0.00 0.00 91 1013.6
20260510075035 49 49 1.0 3.0 0.00 0.00 0.00 91 1013.5
20260510074546 49 347 0.0 3.0 0.00 0.00 0.00 90 1013.5
20260510074034 49 343 1.0 2.0 0.00 0.00 0.00 89 1013.4
20260510073535 50 311 0.0 3.0 0.00 0.00 0.00 88 1013.4
20260510073050 50 0 0.0 4.0 0.00 0.00 0.00 89 1013.2
20260510072535 50 48 2.0 4.0 0.00 0.00 0.00 90 1013.2
20260510072035 49 335 2.0 4.0 0.00 0.00 0.00 90 1013.2
20260510071540 49 5 1.0 4.0 0.00 0.00 0.00 90 1013.3
20260510071034 49 1 1.0 4.0 0.00 0.00 0.00 90 1013.4
20260510070534 49 335 1.0 4.0 0.00 0.00 0.00 90 1013.3
20260510070041 49 347 3.0 4.0 0.00 0.00 0.00 90 1013.4
20260510065537 49 10 2.0 4.0 0.00 0.00 0.00 90 1013.4
20260510065035 49 360 1.0 2.0 0.00 0.00 0.00 89 1013.5
20260510064540 50 21 2.0 5.0 0.00 0.00 0.00 88 1013.5
20260510064034 50 360 1.0 5.0 0.00 0.00 0.00 88 1013.4
20260510063534 50 4 3.0 5.0 0.00 0.00 0.00 89 1013.3
20260510063045 49 181 1.0 4.0 0.00 0.00 0.00 89 1013.2
20260510062537 50 347 2.0 4.0 0.00 0.00 0.00 88 1013.3
20260510062035 50 341 2.0 6.0 0.00 0.00 0.00 86 1013.2
20260510061540 51 5 2.0 10.0 0.00 0.00 0.00 85 1013.3
20260510061035 51 19 3.0 10.0 0.00 0.00 0.00 84 1013.2
20260510060535 52 25 5.0 10.0 0.00 0.00 0.00 85 1013.2
20260510060044 50 357 5.0 8.0 0.00 0.00 0.00 87 1013.4
20260510055535 50 344 3.0 7.0 0.00 0.00 0.00 87 1013.4
20260510055034 50 352 3.0 7.0 0.00 0.00 0.00 87 1013.5
20260510054541 50 353 4.0 6.0 0.00 0.00 0.00 86 1013.4
20260510054036 50 343 2.0 4.0 0.00 0.00 0.00 85 1013.6
20260510053535 51 11 2.0 4.0 0.00 0.00 0.00 83 1013.6
20260510053047 52 0 1.0 3.0 0.00 0.00 0.00 81 1013.6
20260510052535 53 0 0.0 8.0 0.00 0.00 0.00 80 1013.6
20260510052035 53 345 3.0 8.0 0.00 0.00 0.00 82 1013.5
20260510051557 51 15 5.0 8.0 0.00 0.00 0.00 84 1013.3
20260510051037 52 1 3.0 7.0 0.00 0.00 0.00 83 1013.2
20260510050535 52 352 2.0 7.0 0.00 0.00 0.00 84 1013.3
20260510050048 51 321 4.0 7.0 0.00 0.00 0.00 85 1013.4
20260510045535 49 322 4.0 7.0 0.00 0.00 0.00 88 1013.4
20260510045034 49 13 3.0 6.0 0.00 0.00 0.00 87 1013.5
20260510044601 49 328 1.0 10.0 0.00 0.00 0.00 87 1013.4
20260510044036 50 337 4.0 10.0 0.00 0.00 0.00 86 1013.4
20260510043535 49 53 2.0 6.0 0.00 0.00 0.00 87 1013.5
20260510043050 49 336 5.0 6.0 0.00 0.00 0.00 87 1013.5
20260510042536 49 0 2.0 6.0 0.00 0.00 0.00 87 1013.5
20260510042034 49 11 3.0 6.0 0.00 0.00 0.00 88 1013.6
20260510041547 49 345 2.0 6.0 0.00 0.00 0.00 87 1013.7
20260510041034 50 3 2.0 6.0 0.00 0.00 0.00 86 1013.6
20260510040535 50 350 3.0 6.0 0.00 0.00 0.00 87 1013.7
20260510040051 49 358 3.0 6.0 0.00 0.00 0.00 86 1013.6
20260510035534 50 271 1.0 7.0 0.00 0.00 0.00 86 1013.9
20260510035034 50 0 3.0 7.0 0.00 0.00 0.00 86 1013.8
20260510034547 50 2 4.0 7.0 0.00 0.00 0.00 86 1013.9
20260510034035 50 359 4.0 6.0 0.00 0.00 0.00 85 1013.8
20260510033535 50 8 4.0 6.0 0.00 0.00 0.00 85 1013.9
20260510033047 50 8 5.0 6.0 0.00 0.00 0.00 85 1013.7
20260510032536 50 25 2.0 6.0 0.00 0.00 0.00 85 1013.8
20260510032034 50 6 4.0 7.0 0.00 0.00 0.00 85 1013.7
20260510031542 50 343 4.0 7.0 0.00 0.00 0.00 86 1013.9
20260510031034 50 17 4.0 6.0 0.00 0.00 0.00 86 1013.8
20260510030534 50 37 4.0 6.0 0.00 0.00 0.00 86 1013.8
20260510030056 50 354 3.0 5.0 0.00 0.00 0.00 86 1013.9
20260510025534 50 342 1.0 5.0 0.00 0.00 0.00 85 1013.9
20260510025035 50 354 3.0 5.0 0.00 0.00 0.00 85 1013.8
20260510024541 51 351 3.0 4.0 0.00 0.00 0.00 84 1013.8
20260510024034 51 359 3.0 4.0 0.00 0.00 0.00 84 1013.8
20260510023535 51 11 3.0 5.0 0.00 0.00 0.00 83 1013.7
20260510023047 51 345 3.0 5.0 0.00 0.00 0.00 83 1013.7
20260510022608 52 347 2.0 4.0 0.00 0.00 0.00 83 1013.6
20260510022033 52 325 0.0 4.0 0.00 0.00 0.00 82 1013.5
20260510021543 52 339 3.0 4.0 0.00 0.00 0.00 83 1013.3
20260510021034 52 346 1.0 4.0 0.00 0.00 0.00 81 1013.2
20260510020538 53 0 0.0 4.0 0.00 0.00 0.00 81 1013.2
20260510020047 53 0 1.0 5.0 0.00 0.00 0.00 80 1013.0
20260510015534 53 0 0.0 5.0 0.00 0.00 0.00 80 1012.8
20260510015034 53 347 3.0 6.0 0.00 0.00 0.00 80 1012.7
20260510014547 53 12 4.0 6.0 0.00 0.00 0.00 80 1012.7
20260510014034 53 6 4.0 5.0 0.00 0.00 0.00 80 1012.7
20260510013538 54 356 3.0 4.0 0.00 0.00 0.00 79 1012.5
20260510013046 54 6 1.0 5.0 0.00 0.00 0.00 78 1012.5
20260510012536 55 355 3.0 5.0 0.00 0.00 0.00 77 1012.4
20260510012034 55 343 3.0 4.0 0.00 0.00 0.00 76 1012.1
20260510011548 55 352 1.0 6.0 0.00 0.00 0.00 76 1012.1
20260510011035 55 341 2.0 6.0 0.00 0.00 0.00 75 1012.2
20260510010535 55 340 3.0 4.0 0.00 0.00 0.00 75 1012.1
20260510010044 56 354 0.0 3.0 0.00 0.00 0.00 74 1012.2
20260510005534 56 354 1.0 5.0 0.00 0.00 0.00 73 1012.1
20260510005033 57 350 1.0 5.0 0.00 0.00 0.00 72 1012.0
20260510004552 58 356 0.0 4.0 0.00 0.00 0.00 70 1011.9
20260510004038 58 357 1.0 4.0 0.00 0.00 0.00 68 1011.9
20260510003534 59 285 1.0 3.0 0.00 0.00 0.00 66 1011.8
20260510003051 59 338 1.0 3.0 0.00 0.00 0.00 65 1011.7
20260510002534 60 0 0.0 2.0 0.00 0.00 0.00 63 1011.6
20260510002034 61 0 1.0 3.0 0.00 0.00 0.00 61 1011.6
20260510001537 61 54 1.0 3.0 0.00 0.00 0.00 61 1011.4
20260510001034 62 349 1.0 3.0 0.00 0.00 0.00 59 1011.3
20260510000535 62 280 1.0 3.0 0.00 0.00 0.00 58 1011.2
20260510000051 63 297 1.0 2.0 0.00 0.00 0.00 57 1011.2
20260509235534 64 0 0.0 3.0 0.00 0.00 0.00 52 1011.1
20260509235034 65 0 0.0 3.0 0.00 0.00 0.00 53 1011.0
20260509234544 66 283 1.0 3.0 0.00 0.00 0.00 49 1010.9
20260509234036 67 0 1.0 6.0 0.00 0.00 0.00 48 1010.8
20260509233534 68 327 2.0 6.0 0.00 0.00 0.00 44 1010.8
20260509233043 69 345 2.0 4.0 0.00 0.00 0.00 42 1010.8
20260509232538 69 0 0.0 5.0 0.00 0.00 0.00 42 1010.8
20260509232034 70 6 1.0 5.0 0.00 0.00 0.00 41 1010.9
20260509231542 71 250 2.0 5.0 0.00 0.00 0.00 41 1010.7
20260509231033 72 0 0.0 7.0 0.00 0.00 0.00 40 1010.7
20260509230534 71 280 1.0 7.0 0.00 0.00 0.00 40 1010.6
20260509230039 71 354 3.0 9.0 0.00 0.00 0.00 40 1010.7
20260509225535 72 279 3.0 9.0 0.00 0.00 0.00 40 1010.7
20260509225034 72 312 1.0 4.0 0.00 0.00 0.00 40 1010.8
20260509224547 72 255 3.0 6.0 0.00 0.00 0.00 43 1010.6
20260509224035 72 0 1.0 8.0 0.00 0.00 0.00 39 1010.7
20260509223534 72 50 3.0 8.0 0.00 0.00 0.00 39 1010.7
20260509223045 72 123 2.0 10.0 0.00 0.00 0.00 38 1010.7
20260509222534 72 323 6.0 10.0 0.00 0.00 0.00 38 1010.5
20260509222036 72 352 3.0 11.0 0.00 0.00 0.00 39 1010.6
20260509221542 72 181 2.0 11.0 0.00 0.00 0.00 41 1010.5
20260509221034 72 172 2.0 10.0 0.00 0.00 0.00 40 1010.6
20260509220533 71 27 4.0 10.0 0.00 0.00 0.00 41 1010.4
20260509220041 71 28 3.0 11.0 0.00 0.00 0.00 41 1010.4
20260509215534 70 160 1.0 11.0 0.00 0.00 0.00 43 1010.5
20260509215033 70 318 2.0 11.0 0.00 0.00 0.00 44 1010.4
20260509214539 70 136 1.0 6.0 0.00 0.00 0.00 47 1010.3
20260509214033 71 255 3.0 6.0 0.00 0.00 0.00 45 1010.3
20260509213534 72 13 1.0 5.0 0.00 0.00 0.00 45 1010.1
20260509213038 72 201 2.0 6.0 0.00 0.00 0.00 42 1010.1
20260509212534 72 294 2.0 6.0 0.00 0.00 0.00 43 1010.1
20260509212034 73 0 0.0 3.0 0.00 0.00 0.00 45 1010.0
20260509211549 72 29 0.0 4.0 0.00 0.00 0.00 45 1010.0
20260509211037 72 129 2.0 4.0 0.00 0.00 0.00 44 1010.1
20260509210534 72 101 1.0 6.0 0.00 0.00 0.00 46 1010.1
20260509210100 71 0 1.0 6.0 0.00 0.00 0.00 47 1009.9
20260509205534 71 165 3.0 6.0 0.00 0.00 0.00 45 1009.9
20260509205034 71 180 2.0 5.0 0.00 0.00 0.00 48 1010.0
20260509204543 71 242 1.0 8.0 0.00 0.00 0.00 45 1009.9
20260509204034 72 239 3.0 8.0 0.00 0.00 0.00 43 1009.9
20260509203535 72 149 3.0 6.0 0.00 0.00 0.00 45 1009.9
20260509203042 73 226 4.0 11.0 0.00 0.00 0.00 46 1009.8
20260509202535 73 117 5.0 11.0 0.00 0.00 0.00 44 1009.7
20260509202035 73 166 3.0 7.0 0.00 0.00 0.00 47 1009.7
20260509201547 72 146 2.0 3.0 0.00 0.00 0.00 48 1009.6
20260509201035 72 259 0.0 4.0 0.00 0.00 0.00 51 1009.7
20260509200536 71 0 2.0 5.0 0.00 0.00 0.00 51 1009.7
20260509200049 71 245 2.0 6.0 0.00 0.00 0.00 47 1009.8
20260509195538 71 0 2.0 6.0 0.00 0.00 0.00 45 1009.8
20260509195039 71 0 2.0 5.0 0.00 0.00 0.00 53 1009.9
20260509194549 71 161 2.0 5.0 0.00 0.00 0.00 52 1010.0
20260509194036 71 148 2.0 4.0 0.00 0.00 0.00 51 1009.9
20260509193538 71 159 2.0 4.0 0.00 0.00 0.00 50 1009.9
20260509193045 70 159 0.0 6.0 0.00 0.00 0.00 52 1010.0
20260509192539 70 0 2.0 6.0 0.00 0.00 0.00 52 1010.0
20260509192038 70 153 3.0 5.0 0.00 0.00 0.00 54 1010.0
20260509191549 70 184 3.0 4.0 0.00 0.00 0.00 54 1010.0
20260509191035 70 200 2.0 5.0 0.00 0.00 0.00 53 1010.1
20260509190535 70 147 2.0 7.0 0.00 0.00 0.00 54 1010.2
20260509190047 70 179 4.0 7.0 0.00 0.00 0.00 53 1010.2
20260509185536 70 245 3.0 7.0 0.00 0.00 0.00 53 1010.2
20260509185035 70 161 3.0 5.0 0.00 0.00 0.00 54 1010.1
20260509184554 70 0 1.0 9.0 0.00 0.00 0.00 53 1010.1
20260509184036 70 222 3.0 9.0 0.00 0.00 0.00 52 1010.1
20260509183536 70 235 5.0 10.0 0.00 0.00 0.00 51 1010.2
20260509183048 70 158 3.0 10.0 0.00 0.00 0.00 49 1010.3
20260509182536 71 184 4.0 10.0 0.00 0.00 0.00 49 1010.3
20260509182036 71 148 3.0 9.0 0.00 0.00 0.00 52 1010.6
20260509181557 70 207 5.0 9.0 0.00 0.00 0.00 51 1010.5
20260509181038 69 153 3.0 9.0 0.00 0.00 0.00 51 1010.7
20260509180536 70 154 3.0 9.0 0.00 0.00 0.00 49 1010.7
20260509180048 70 113 3.0 7.0 0.00 0.00 0.00 49 1010.6
20260509175536 69 160 3.0 6.0 0.00 0.00 0.00 51 1010.9
20260509175036 69 124 3.0 6.0 0.00 0.00 0.00 53 1010.8
20260509174547 69 153 3.0 6.0 0.00 0.00 0.00 54 1010.9
20260509174036 69 134 3.0 6.0 0.00 0.00 0.00 54 1010.9
20260509173535 69 158 3.0 6.0 0.00 0.00 0.00 52 1010.8
20260509173049 68 161 1.0 4.0 0.00 0.00 0.00 54 1010.9
20260509172539 67 0 0.0 6.0 0.00 0.00 0.00 54 1011.0
20260509172036 67 184 1.0 6.0 0.00 0.00 0.00 55 1011.1
20260509171549 67 247 1.0 4.0 0.00 0.00 0.00 55 1011.1
20260509171035 67 236 2.0 4.0 0.00 0.00 0.00 53 1011.0
20260509170535 67 0 1.0 6.0 0.00 0.00 0.00 57 1011.1
20260509170050 67 2 1.0 6.0 0.00 0.00 0.00 55 1011.2
20260509165535 67 150 4.0 10.0 0.00 0.00 0.00 54 1011.2
20260509165037 67 168 2.0 10.0 0.00 0.00 0.00 52 1011.3
20260509164545 67 182 2.0 9.0 0.00 0.00 0.00 53 1011.2
20260509164036 67 0 2.0 9.0 0.00 0.00 0.00 51 1011.2
20260509163536 67 240 2.0 7.0 0.00 0.00 0.00 54 1011.2
20260509163042 68 155 3.0 7.0 0.00 0.00 0.00 54 1011.1
20260509162536 68 113 3.0 7.0 0.00 0.00 0.00 56 1011.2
20260509162035 67 186 3.0 7.0 0.00 0.00 0.00 53 1011.0
20260509161547 67 142 3.0 7.0 0.00 0.00 0.00 56 1010.9
20260509161035 66 111 3.0 6.0 0.00 0.00 0.00 55 1010.9
20260509160535 66 205 2.0 5.0 0.00 0.00 0.00 56 1011.0
20260509160048 66 160 3.0 8.0 0.00 0.00 0.00 56 1011.3
20260509155536 66 132 0.0 8.0 0.00 0.00 0.00 60 1011.2
20260509155037 65 241 2.0 8.0 0.00 0.00 0.00 60 1011.7
20260509154546 66 157 1.0 6.0 0.00 0.00 0.00 57 1011.6
20260509154038 66 248 1.0 5.0 0.00 0.00 0.00 57 1011.6
20260509153535 65 182 2.0 5.0 0.00 0.00 0.00 56 1011.5
20260509153059 65 0 0.0 3.0 0.00 0.00 0.00 58 1011.5
20260509152535 65 259 1.0 6.0 0.00 0.00 0.00 58 1011.5
20260509152038 65 182 1.0 6.0 0.00 0.00 0.00 57 1011.6
20260509151549 65 259 2.0 6.0 0.00 0.00 0.00 56 1011.5
20260509151037 65 143 1.0 4.0 0.00 0.00 0.00 58 1011.7
20260509150535 65 248 0.0 3.0 0.00 0.00 0.00 61 1011.6
20260509150049 65 0 1.0 5.0 0.00 0.00 0.00 58 1011.7
20260509145536 65 162 2.0 5.0 0.00 0.00 0.00 58 1011.6
20260509145036 65 0 0.0 7.0 0.00 0.00 0.00 60 1011.6
20260509144552 65 166 0.0 7.0 0.00 0.00 0.00 60 1011.7
20260509144036 65 211 1.0 7.0 0.00 0.00 0.00 63 1011.7
20260509143535 64 152 2.0 7.0 0.00 0.00 0.00 64 1011.6
20260509143049 64 109 2.0 5.0 0.00 0.00 0.00 64 1011.5
20260509142535 64 149 3.0 6.0 0.00 0.00 0.00 64 1011.4
20260509142036 63 134 3.0 6.0 0.00 0.00 0.00 65 1011.4
20260509141546 64 157 3.0 6.0 0.00 0.00 0.00 65 1011.6
20260509141036 64 198 1.0 4.0 0.00 0.00 0.00 66 1011.4
20260509140535 63 148 0.0 3.0 0.00 0.00 0.00 68 1011.3
20260509140051 62 181 2.0 4.0 0.00 0.00 0.00 69 1011.3
20260509135535 61 128 2.0 5.0 0.00 0.00 0.00 67 1011.3
20260509135036 60 163 2.0 7.0 0.00 0.00 0.00 72 1011.4
20260509134549 60 172 3.0 7.0 0.00 0.00 0.00 73 1011.7
20260509134034 59 162 5.0 6.0 0.00 0.00 0.00 75 1011.8
20260509133535 59 178 3.0 5.0 0.00 0.00 0.00 78 1011.8
20260509133040 59 241 2.0 3.0 0.00 0.00 0.00 79 1011.9
20260509132535 59 164 1.0 2.0 0.00 0.00 0.00 77 1012.0
20260509132036 58 153 1.0 2.0 0.00 0.00 0.00 80 1011.9
20260509131543 58 0 0.0 1.0 0.00 0.00 0.00 82 1011.8
20260509131035 57 0 0.0 1.0 0.00 0.00 0.00 85 1011.9
20260509130535 56 0 0.0 1.0 0.00 0.00 0.00 86 1012.0
20260509130047 55 0 0.0 1.0 0.00 0.00 0.00 87 1012.1
20260509125540 55 145 1.0 1.0 0.00 0.00 0.00 87 1012.1
20260509125035 54 262 0.0 1.0 0.00 0.00 0.00 88 1012.1
20260509124545 54 0 0.0 0.0 0.00 0.00 0.00 91 1012.2
20260509124035 53 0 0.0 0.0 0.00 0.00 0.00 90 1012.3
20260509123535 52 0 0.0 1.0 0.00 0.00 0.00 91 1012.3
20260509123043 52 0 0.0 1.0 0.00 0.00 0.00 91 1012.3
20260509122536 52 0 0.0 2.0 0.00 0.00 0.00 91 1012.3
20260509122036 51 0 0.0 2.0 0.00 0.00 0.00 91 1012.4
20260509121547 51 4 1.0 2.0 0.00 0.00 0.00 92 1012.5
20260509121036 50 0 0.0 2.0 0.00 0.00 0.00 92 1012.4
20260509120536 50 0 0.0 0.0 0.00 0.00 0.00 93 1012.4
20260509120058 49 0 0.0 0.0 0.00 0.00 0.00 93 1012.5
20260509115535 49 0 0.0 0.0 0.00 0.00 0.00 93 1012.5
20260509115035 48 0 0.0 3.0 0.00 0.00 0.00 93 1012.6
20260509114543 48 0 1.0 3.0 0.00 0.00 0.00 93 1012.5
20260509114037 47 12 2.0 3.0 0.00 0.00 0.00 94 1012.5
20260509113534 47 15 1.0 2.0 0.00 0.00 0.00 94 1012.5
20260509113045 47 0 0.0 0.0 0.00 0.00 0.00 94 1012.7
20260509112535 46 0 0.0 0.0 0.00 0.00 0.00 94 1012.5
20260509112036 46 0 0.0 0.0 0.00 0.00 0.00 94 1012.5
20260509111542 46 0 0.0 2.0 0.00 0.00 0.00 94 1012.4
20260509111036 46 0 1.0 3.0 0.00 0.00 0.00 94 1012.3
20260509110534 46 8 2.0 3.0 0.00 0.00 0.00 94 1012.3
20260509110044 45 11 1.0 3.0 0.00 0.00 0.00 94 1012.3
20260509105535 45 352 1.0 2.0 0.00 0.00 0.00 94 1012.2
20260509105035 45 354 1.0 2.0 0.00 0.00 0.00 94 1012.3
20260509104547 45 1 1.0 3.0 0.00 0.00 0.00 94 1012.3
20260509104035 45 345 2.0 3.0 0.00 0.00 0.00 94 1012.1
20260509103535 44 21 1.0 2.0 0.00 0.00 0.00 94 1012.1
20260509103048 44 13 1.0 2.0 0.00 0.00 0.00 94 1012.1
20260509102535 44 360 1.0 2.0 0.00 0.00 0.00 93 1012.1
20260509102036 45 360 0.0 2.0 0.00 0.00 0.00 94 1012.0
20260509101553 45 360 1.0 3.0 0.00 0.00 0.00 94 1012.0
20260509101035 45 0 1.0 3.0 0.00 0.00 0.00 94 1012.3
20260509100535 44 359 1.0 3.0 0.00 0.00 0.00 94 1012.2
20260509100045 44 0 0.0 2.0 0.00 0.00 0.00 94 1012.2
20260509095535 44 0 0.0 2.0 0.00 0.00 0.00 94 1012.0
20260509095034 44 5 1.0 3.0 0.00 0.00 0.00 93 1012.1
20260509094539 44 347 0.0 3.0 0.00 0.00 0.00 93 1012.0
20260509094035 44 347 2.0 3.0 0.00 0.00 0.00 93 1012.1
20260509093535 44 352 1.0 3.0 0.00 0.00 0.00 93 1012.1
20260509093038 44 352 0.0 2.0 0.00 0.00 0.00 93 1012.2
20260509092534 44 10 1.0 2.0 0.00 0.00 0.00 92 1012.2
20260509092035 44 10 0.0 2.0 0.00 0.00 0.00 93 1012.3
20260509091602 44 0 1.0 3.0 0.00 0.00 0.00 93 1012.3
20260509091035 44 0 1.0 3.0 0.00 0.00 0.00 93 1012.4
20260509090536 44 0 0.0 2.0 0.00 0.00 0.00 93 1012.4
20260509090042 44 0 1.0 3.0 0.00 0.00 0.00 93 1012.3
20260509085535 44 352 1.0 3.0 0.00 0.00 0.00 93 1012.5
20260509085035 44 0 0.0 1.0 0.00 0.00 0.00 92 1012.4
20260509084547 44 0 0.0 4.0 0.00 0.00 0.00 92 1012.5
20260509084035 43 0 1.0 4.0 0.00 0.00 0.00 92 1012.4
20260509083534 43 4 1.0 2.0 0.00 0.00 0.00 92 1012.4
20260509083039 43 0 0.0 2.0 0.00 0.00 0.00 92 1012.4
20260509082535 43 359 0.0 2.0 0.00 0.00 0.00 92 1012.4
20260509082038 43 44 1.0 2.0 0.00 0.00 0.00 92 1012.6